Location: Mount Kobau Star Party
(49.1167°N, 119.7333°W)
Time: 09:15:19
(UTC-08:00)

Envisat - Visible Passes

Search period start: 24 February 2024 00:00
Search period end: 05 March 2024 00:00
Orbit: 762 x 764 km, 98.3° (Epoch: 24 February)

Date Brightness Start Highest point End Pass type
(mag) Time Alt. Az. Time Alt. Az. Time Alt. Az.
24 Feb 5.1 02:50:05 10° NNE 02:52:20 23° NE 02:52:20 23° NE visible
24 Feb 3.9 04:29:06 10° N 04:32:30 32° NW 04:32:30 32° NW visible
25 Feb 5.8 02:13:43 10° NE 02:14:45 13° ENE 02:14:45 13° ENE visible
25 Feb 3.8 03:51:31 10° N 03:54:55 42° N 03:54:55 42° N visible
25 Feb 4.8 05:32:23 10° NNW 05:34:42 13° NW 05:35:05 13° WNW visible
26 Feb 4.4 03:14:15 10° NNE 03:17:19 35° NE 03:17:19 35° NE visible
26 Feb 4.2 04:53:52 10° N 04:57:30 24° NW 04:57:30 24° NW visible
27 Feb 5.2 02:37:24 10° NE 02:39:43 21° ENE 02:39:43 21° ENE visible
27 Feb 3.6 04:16:04 10° N 04:19:54 40° NW 04:19:54 40° NW visible
28 Feb 5.9 02:01:31 10° ENE 02:02:08 11° ENE 02:02:08 11° ENE visible
28 Feb 3.6 03:38:35 10° NNE 03:42:19 50° NNE 03:42:19 50° NNE visible
28 Feb 4.6 05:18:56 10° NNW 05:21:59 16° NW 05:22:28 16° WNW visible
29 Feb 4.5 03:01:27 10° NNE 03:04:42 34° NE 03:04:42 34° NE visible
29 Feb 3.9 04:40:45 10° N 04:44:53 30° WNW 04:44:53 30° WNW visible
01 Mar 5.4 02:24:48 10° NE 02:27:07 19° ENE 02:27:07 19° ENE visible
01 Mar 3.3 04:03:04 10° N 04:07:17 52° NW 04:07:17 52° NW visible
01 Mar 4.9 05:44:52 10° NW 05:46:00 11° NW 05:47:07 10° WNW visible
02 Mar 3.6 03:25:42 10° NNE 03:29:42 53° NE 03:29:42 53° NE visible
02 Mar 4.3 05:05:39 10° NNW 05:09:15 20° WNW 05:09:52 20° WNW visible
03 Mar 4.6 02:48:42 10° NNE 02:52:06 30° ENE 02:52:06 30° ENE visible
03 Mar 3.6 04:27:41 10° N 04:32:16 37° WNW 04:32:16 37° WNW visible
04 Mar 5.5 02:12:21 10° NE 02:14:31 16° ENE 02:14:31 16° ENE visible
04 Mar 3.0 03:50:06 10° N 03:54:41 67° NNW 03:54:41 67° NNW visible
04 Mar 4.8 05:30:57 10° NNW 05:33:18 13° NW 05:34:51 12° WNW visible
